Wetterdaten: Samstag, 20.06.2015
Datum Zeit Temp. A. Feuchte A. Luftdruck Regen Wind Richtung Richtung Sonnenschein ET UV Solar Taupunkt Windchill Windben Empfang
20.06.2015 00:00 11,2 C 82 % 1017,7 hPa 0,0 l/m 0,0 km/h (0 Bft) S 177 0 min 0,000 mm 0,0 UV-I 0 W/m 8,2 C 11,2 C 0,0 km/h (0 Bft) 0,00 %
20.06.2015 00:05 11,2 C 82 % 1017,6 hPa 0,0 l/m 0,0 km/h (0 Bft) O-NO 65 0 min 0,000 mm 0,0 UV-I 0 W/m 8,2 C 11,2 C 0,0 km/h (0 Bft) 0,00 %
20.06.2015 00:10 11,2 C 82 % 1017,6 hPa 0,0 l/m 0,0 km/h (0 Bft) SO 143 0 min 0,000 mm 0,0 UV-I 0 W/m 8,2 C 11,2 C 0,0 km/h (0 Bft) 0,00 %
20.06.2015 00:15 11,2 C 81 % 1017,5 hPa 0,0 l/m 0,0 km/h (0 Bft) O 101 0 min 0,000 mm 0,0 UV-I 0 W/m 8,1 C 11,2 C 0,0 km/h (0 Bft) 0,00 %
20.06.2015 00:20 11,2 C 82 % 1017,6 hPa 0,0 l/m 0,0 km/h (0 Bft) S 184 0 min 0,000 mm 0,0 UV-I 0 W/m 8,2 C 11,2 C 0,0 km/h (0 Bft) 0,00 %
20.06.2015 00:25 11,2 C 82 % 1017,6 hPa 0,0 l/m 0,0 km/h (0 Bft) S 172 0 min 0,000 mm 0,0 UV-I 0 W/m 8,2 C 11,2 C 0,0 km/h (0 Bft) 0,00 %
20.06.2015 00:30 11,1 C 83 % 1017,6 hPa 0,0 l/m 0,0 km/h (0 Bft) W-SW 250 0 min 0,000 mm 0,0 UV-I 0 W/m 8,3 C 11,1 C 0,0 km/h (0 Bft) 0,00 %
20.06.2015 00:35 11,1 C 83 % 1017,5 hPa 0,0 l/m 0,0 km/h (0 Bft) S 174 0 min 0,000 mm 0,0 UV-I 0 W/m 8,3 C 11,1 C 0,0 km/h (0 Bft) 0,00 %
20.06.2015 00:40 11,1 C 83 % 1017,5 hPa 0,0 l/m 0,0 km/h (0 Bft) S-SO 161 0 min 0,000 mm 0,0 UV-I 0 W/m 8,3 C 11,1 C 0,0 km/h (0 Bft) 0,00 %
20.06.2015 00:45 11,1 C 83 % 1017,5 hPa 0,0 l/m 0,0 km/h (0 Bft) O-SO 103 0 min 0,000 mm 0,0 UV-I 0 W/m 8,3 C 11,1 C 0,0 km/h (0 Bft) 0,00 %
20.06.2015 00:50 11,1 C 83 % 1017,4 hPa 0,0 l/m 0,0 km/h (0 Bft) SO 138 0 min 0,000 mm 0,0 UV-I 0 W/m 8,3 C 11,1 C 0,0 km/h (0 Bft) 0,00 %
20.06.2015 00:55 11,1 C 83 % 1017,3 hPa 0,0 l/m 0,0 km/h (0 Bft) O-SO 122 0 min 0,000 mm 0,0 UV-I 0 W/m 8,3 C 11,1 C 0,0 km/h (0 Bft) 0,00 %
20.06.2015 01:00 11,1 C 83 % 1017,3 hPa 0,0 l/m 0,0 km/h (0 Bft) S 176 0 min 0,000 mm 0,0 UV-I 0 W/m 8,3 C 11,1 C 0,0 km/h (0 Bft) 0,00 %
20.06.2015 01:05 11,1 C 83 % 1017,2 hPa 0,0 l/m 0,0 km/h (0 Bft) S 176 0 min 0,000 mm 0,0 UV-I 0 W/m 8,3 C 11,1 C 0,0 km/h (0 Bft) 0,00 %
20.06.2015 01:10 11,1 C 83 % 1017,2 hPa 0,0 l/m 0,0 km/h (0 Bft) S 175 0 min 0,000 mm 0,0 UV-I 0 W/m 8,3 C 11,1 C 0,0 km/h (0 Bft) 0,00 %
20.06.2015 01:15 11,1 C 83 % 1017,0 hPa 0,0 l/m 0,0 km/h (0 Bft) O-SO 114 0 min 0,000 mm 0,0 UV-I 0 W/m 8,3 C 11,1 C 0,0 km/h (0 Bft) 0,00 %
20.06.2015 01:20 11,1 C 83 % 1017,2 hPa 0,0 l/m 0,0 km/h (0 Bft) S-SW 213 0 min 0,000 mm 0,0 UV-I 0 W/m 8,3 C 11,1 C 0,0 km/h (0 Bft) 0,00 %
20.06.2015 01:25 11,1 C 83 % 1017,1 hPa 0,0 l/m 0,7 km/h (0 Bft) SW 214 0 min 0,000 mm 0,0 UV-I 0 W/m 8,3 C 11,1 C 4,0 km/h (1 Bft) 0,00 %
20.06.2015 01:30 11,1 C 83 % 1017,0 hPa 0,0 l/m 0,0 km/h (0 Bft) S-SW 194 0 min 0,000 mm 0,0 UV-I 0 W/m 8,3 C 11,1 C 0,0 km/h (0 Bft) 0,00 %
20.06.2015 01:35 11,2 C 83 % 1017,1 hPa 0,0 l/m 0,0 km/h (0 Bft) O 95 0 min 0,000 mm 0,0 UV-I 0 W/m 8,4 C 11,2 C 0,0 km/h (0 Bft) 0,00 %
20.06.2015 01:40 11,2 C 84 % 1017,0 hPa 0,0 l/m 0,4 km/h (0 Bft) W-SW 256 0 min 0,000 mm 0,0 UV-I 0 W/m 8,6 C 11,2 C 4,0 km/h (1 Bft) 0,00 %
20.06.2015 01:45 11,2 C 84 % 1016,9 hPa 0,0 l/m 0,0 km/h (0 Bft) O-NO 77 0 min 0,000 mm 0,0 UV-I 0 W/m 8,6 C 11,2 C 0,0 km/h (0 Bft) 0,00 %
20.06.2015 01:50 11,2 C 85 % 1017,0 hPa 0,0 l/m 0,4 km/h (0 Bft) N-NW 343 0 min 0,000 mm 0,0 UV-I 0 W/m 8,8 C 11,2 C 4,0 km/h (1 Bft) 0,00 %
20.06.2015 01:55 11,1 C 85 % 1017,0 hPa 0,0 l/m 1,8 km/h (1 Bft) N-NW 335 0 min 0,000 mm 0,0 UV-I 0 W/m 8,7 C 11,1 C 4,0 km/h (1 Bft) 0,00 %
20.06.2015 02:00 11,1 C 85 % 1017,1 hPa 0,0 l/m 3,2 km/h (1 Bft) S 179 0 min 0,000 mm 0,0 UV-I 0 W/m 8,7 C 11,1 C 11,9 km/h (2 Bft) 0,00 %
20.06.2015 02:05 11,0 C 85 % 1016,9 hPa 0,0 l/m 1,4 km/h (1 Bft) N-NO 33 0 min 0,000 mm 0,0 UV-I 0 W/m 8,6 C 11,0 C 4,0 km/h (1 Bft) 0,00 %
20.06.2015 02:10 10,9 C 85 % 1017,0 hPa 0,0 l/m 4,7 km/h (1 Bft) W-SW 255 0 min 0,000 mm 0,0 UV-I 0 W/m 8,5 C 10,9 C 7,9 km/h (2 Bft) 0,00 %
20.06.2015 02:15 10,8 C 84 % 1016,9 hPa 0,0 l/m 2,2 km/h (1 Bft) SW 229 0 min 0,000 mm 0,0 UV-I 0 W/m 8,2 C 10,8 C 4,0 km/h (1 Bft) 0,00 %
20.06.2015 02:20 10,7 C 84 % 1017,0 hPa 0,0 l/m 1,4 km/h (1 Bft) NO 54 0 min 0,000 mm 0,0 UV-I 0 W/m 8,1 C 10,7 C 4,0 km/h (1 Bft) 0,00 %
20.06.2015 02:25 10,6 C 84 % 1016,9 hPa 0,0 l/m 1,8 km/h (1 Bft) W-SW 255 0 min 0,000 mm 0,0 UV-I 0 W/m 8,0 C 10,6 C 4,0 km/h (1 Bft) 0,00 %
20.06.2015 02:30 10,6 C 85 % 1016,9 hPa 0,0 l/m 0,7 km/h (0 Bft) SW 222 0 min 0,000 mm 0,0 UV-I 0 W/m 8,2 C 10,6 C 4,0 km/h (1 Bft) 0,00 %
20.06.2015 02:35 10,5 C 84 % 1016,7 hPa 0,0 l/m 0,0 km/h (0 Bft) O-SO 112 0 min 0,000 mm 0,0 UV-I 0 W/m 7,9 C 10,5 C 0,0 km/h (0 Bft) 0,00 %
20.06.2015 02:40 10,4 C 84 % 1016,9 hPa 0,0 l/m 0,0 km/h (0 Bft) S 173 0 min 0,000 mm 0,0 UV-I 0 W/m 7,8 C 10,4 C 0,0 km/h (0 Bft) 0,00 %
20.06.2015 02:45 10,3 C 85 % 1016,7 hPa 0,0 l/m 0,0 km/h (0 Bft) W-SW 256 0 min 0,000 mm 0,0 UV-I 0 W/m 7,9 C 10,3 C 0,0 km/h (0 Bft) 0,00 %
20.06.2015 02:50 10,3 C 85 % 1016,8 hPa 0,0 l/m 0,0 km/h (0 Bft) S-SW 210 0 min 0,000 mm 0,0 UV-I 0 W/m 7,9 C 10,3 C 0,0 km/h (0 Bft) 0,00 %
20.06.2015 02:55 10,3 C 85 % 1016,7 hPa 0,0 l/m 0,0 km/h (0 Bft) O-NO 57 0 min 0,000 mm 0,0 UV-I 0 W/m 7,9 C 10,3 C 0,0 km/h (0 Bft) 0,00 %
20.06.2015 03:00 10,2 C 87 % 1016,6 hPa 0,0 l/m 1,4 km/h (1 Bft) S 179 0 min 0,000 mm 0,0 UV-I 0 W/m 8,1 C 10,2 C 4,0 km/h (1 Bft) 0,00 %
20.06.2015 03:05 10,2 C 87 % 1016,8 hPa 0,0 l/m 0,0 km/h (0 Bft) SO 132 0 min 0,000 mm 0,0 UV-I 0 W/m 8,1 C 10,2 C 0,0 km/h (0 Bft) 0,00 %
20.06.2015 03:10 10,2 C 88 % 1016,6 hPa 0,0 l/m 2,2 km/h (1 Bft) W-SW 256 0 min 0,000 mm 0,0 UV-I 0 W/m 8,3 C 10,2 C 4,0 km/h (1 Bft) 0,00 %
20.06.2015 03:15 10,2 C 88 % 1016,6 hPa 0,0 l/m 0,0 km/h (0 Bft) S 173 0 min 0,000 mm 0,0 UV-I 0 W/m 8,3 C 10,2 C 0,0 km/h (0 Bft) 0,00 %
20.06.2015 03:20 10,2 C 88 % 1016,8 hPa 0,0 l/m 0,0 km/h (0 Bft) S 173 0 min 0,000 mm 0,0 UV-I 0 W/m 8,3 C 10,2 C 0,0 km/h (0 Bft) 0,00 %
20.06.2015 03:25 10,1 C 88 % 1016,7 hPa 0,0 l/m 0,0 km/h (0 Bft) SW 216 0 min 0,000 mm 0,0 UV-I 0 W/m 8,2 C 10,1 C 0,0 km/h (0 Bft) 0,00 %
20.06.2015 03:30 10,1 C 88 % 1016,7 hPa 0,0 l/m 0,0 km/h (0 Bft) S 187 0 min 0,000 mm 0,0 UV-I 0 W/m 8,2 C 10,1 C 0,0 km/h (0 Bft) 0,00 %
20.06.2015 03:35 10,1 C 89 % 1016,8 hPa 0,0 l/m 0,4 km/h (0 Bft) S-SW 212 0 min 0,000 mm 0,0 UV-I 0 W/m 8,4 C 10,1 C 4,0 km/h (1 Bft) 0,00 %
20.06.2015 03:40 10,1 C 89 % 1016,6 hPa 0,0 l/m 0,0 km/h (0 Bft) S-SW 206 0 min 0,000 mm 0,0 UV-I 0 W/m 8,4 C 10,1 C 0,0 km/h (0 Bft) 0,00 %
20.06.2015 03:45 10,2 C 89 % 1016,7 hPa 0,0 l/m 0,4 km/h (0 Bft) W-NW 289 0 min 0,000 mm 0,0 UV-I 0 W/m 8,5 C 10,2 C 4,0 km/h (1 Bft) 0,00 %
20.06.2015 03:50 10,2 C 88 % 1016,7 hPa 0,0 l/m 0,4 km/h (0 Bft) W 278 0 min 0,000 mm 0,0 UV-I 0 W/m 8,3 C 10,2 C 4,0 km/h (1 Bft) 0,00 %
20.06.2015 03:55 10,2 C 88 % 1016,6 hPa 0,0 l/m 0,7 km/h (0 Bft) SW 233 0 min 0,000 mm 0,0 UV-I 0 W/m 8,3 C 10,2 C 4,0 km/h (1 Bft) 0,00 %
20.06.2015 04:00 10,3 C 88 % 1016,5 hPa 0,0 l/m 0,0 km/h (0 Bft) O-NO 60 0 min 0,000 mm 0,0 UV-I 0 W/m 8,4 C 10,3 C 0,0 km/h (0 Bft) 0,00 %
20.06.2015 04:05 10,3 C 89 % 1016,4 hPa 0,0 l/m 3,2 km/h (1 Bft) SO 146 0 min 0,000 mm 0,0 UV-I 0 W/m 8,6 C 10,3 C 7,9 km/h (2 Bft) 0,00 %
20.06.2015 04:10 10,2 C 89 % 1016,6 hPa 0,0 l/m 0,4 km/h (0 Bft) W-SW 256 0 min 0,000 mm 0,0 UV-I 0 W/m 8,5 C 10,2 C 4,0 km/h (1 Bft) 0,00 %
20.06.2015 04:15 10,2 C 90 % 1016,5 hPa 0,0 l/m 1,8 km/h (1 Bft) W-SW 252 0 min 0,000 mm 0,0 UV-I 0 W/m 8,6 C 10,2 C 4,0 km/h (1 Bft) 0,00 %
20.06.2015 04:20 10,2 C 89 % 1016,6 hPa 0,0 l/m 0,4 km/h (0 Bft) O 95 0 min 0,000 mm 0,0 UV-I 0 W/m 8,5 C 10,2 C 4,0 km/h (1 Bft) 0,00 %
20.06.2015 04:25 10,2 C 89 % 1016,4 hPa 0,0 l/m 0,7 km/h (0 Bft) O 97 0 min 0,000 mm 0,0 UV-I 0 W/m 8,5 C 10,2 C 4,0 km/h (1 Bft) 0,00 %
20.06.2015 04:30 10,2 C 88 % 1016,5 hPa 0,0 l/m 0,0 km/h (0 Bft) S 185 0 min 0,000 mm 0,0 UV-I 0 W/m 8,3 C 10,2 C 0,0 km/h (0 Bft) 0,00 %
20.06.2015 04:35 10,3 C 87 % 1016,6 hPa 0,0 l/m 0,0 km/h (0 Bft) NO 38 0 min 0,000 mm 0,0 UV-I 0 W/m 8,2 C 10,3 C 0,0 km/h (0 Bft) 0,00 %
20.06.2015 04:40 10,3 C 86 % 1016,3 hPa 0,0 l/m 0,0 km/h (0 Bft) S-SO 164 0 min 0,000 mm 0,0 UV-I 0 W/m 8,1 C 10,3 C 0,0 km/h (0 Bft) 0,00 %
20.06.2015 04:45 10,4 C 87 % 1016,5 hPa 0,0 l/m 0,0 km/h (0 Bft) S 174 0 min 0,000 mm 0,0 UV-I 0 W/m 8,3 C 10,4 C 0,0 km/h (0 Bft) 0,00 %
20.06.2015 04:50 10,4 C 87 % 1016,4 hPa 0,0 l/m 2,9 km/h (1 Bft) W-SW 255 0 min 0,000 mm 0,0 UV-I 0 W/m 8,3 C 10,4 C 4,0 km/h (1 Bft) 0,00 %
20.06.2015 04:55 10,3 C 88 % 1016,3 hPa 0,0 l/m 0,7 km/h (0 Bft) O-NO 64 0 min 0,000 mm 0,0 UV-I 0 W/m 8,4 C 10,3 C 4,0 km/h (1 Bft) 0,00 %
20.06.2015 05:00 10,3 C 89 % 1016,4 hPa 0,0 l/m 0,0 km/h (0 Bft) O-SO 114 0 min 0,000 mm 0,0 UV-I 0 W/m 8,6 C 10,3 C 0,0 km/h (0 Bft) 0,00 %
20.06.2015 05:05 10,4 C 89 % 1016,7 hPa 0,0 l/m 0,4 km/h (0 Bft) O 84 0 min 0,000 mm 0,0 UV-I 0 W/m 8,7 C 10,4 C 4,0 km/h (1 Bft) 0,00 %
20.06.2015 05:10 10,5 C 89 % 1016,5 hPa 0,0 l/m 0,0 km/h (0 Bft) O-NO 74 0 min 0,000 mm 0,0 UV-I 0 W/m 8,8 C 10,5 C 0,0 km/h (0 Bft) 0,00 %
20.06.2015 05:15 10,7 C 89 % 1016,2 hPa 0,0 l/m 0,0 km/h (0 Bft) W-NW 297 0 min 0,000 mm 0,0 UV-I 0 W/m 9,0 C 10,7 C 0,0 km/h (0 Bft) 0,00 %
20.06.2015 05:20 10,9 C 87 % 1016,2 hPa 0,0 l/m 0,0 km/h (0 Bft) SO 133 0 min 0,000 mm 0,0 UV-I 0 W/m 8,8 C 10,9 C 0,0 km/h (0 Bft) 0,00 %
20.06.2015 05:25 11,3 C 86 % 1016,1 hPa 0,0 l/m 3,2 km/h (1 Bft) W-SW 251 0 min 0,000 mm 1,0 UV-I 0 W/m 9,0 C 11,3 C 7,9 km/h (2 Bft) 0,00 %
20.06.2015 05:30 11,9 C 83 % 1015,9 hPa 0,0 l/m 1,4 km/h (1 Bft) S-SW 197 0 min 0,000 mm 0,0 UV-I 1 W/m 9,1 C 11,9 C 4,0 km/h (1 Bft) 0,00 %
20.06.2015 05:35 12,2 C 81 % 1015,9 hPa 0,0 l/m 1,8 km/h (1 Bft) W-SW 256 0 min 0,000 mm 0,0 UV-I 5 W/m 9,0 C 12,2 C 4,0 km/h (1 Bft) 0,00 %
20.06.2015 05:40 12,0 C 82 % 1016,0 hPa 0,0 l/m 1,8 km/h (1 Bft) W-SW 251 0 min 0,000 mm 0,0 UV-I 11 W/m 9,0 C 12,0 C 4,0 km/h (1 Bft) 0,00 %
20.06.2015 05:45 11,7 C 82 % 1015,9 hPa 0,0 l/m 0,0 km/h (0 Bft) O 92 0 min 0,000 mm 0,0 UV-I 19 W/m 8,7 C 11,7 C 0,0 km/h (0 Bft) 0,00 %
20.06.2015 05:50 11,6 C 83 % 1016,2 hPa 0,0 l/m 0,4 km/h (0 Bft) W-SW 251 0 min 0,000 mm 1,0 UV-I 22 W/m 8,8 C 11,6 C 4,0 km/h (1 Bft) 0,00 %
20.06.2015 05:55 11,5 C 83 % 1016,3 hPa 0,0 l/m 2,9 km/h (1 Bft) W-SW 256 0 min 0,000 mm 1,0 UV-I 29 W/m 8,7 C 11,5 C 4,0 km/h (1 Bft) 0,00 %
20.06.2015 06:00 11,5 C 83 % 1016,1 hPa 0,0 l/m 2,2 km/h (1 Bft) W-SW 255 0 min 0,000 mm 1,0 UV-I 39 W/m 8,7 C 11,5 C 4,0 km/h (1 Bft) 0,00 %
20.06.2015 06:05 11,5 C 83 % 1016,0 hPa 0,0 l/m 0,4 km/h (0 Bft) W-SW 251 0 min 0,000 mm 1,0 UV-I 61 W/m 8,7 C 11,5 C 4,0 km/h (1 Bft) 0,00 %
20.06.2015 06:10 11,6 C 83 % 1016,1 hPa 0,0 l/m 0,0 km/h (0 Bft) SO 125 0 min 0,000 mm 1,0 UV-I 81 W/m 8,8 C 11,6 C 0,0 km/h (0 Bft) 0,00 %
20.06.2015 06:15 11,6 C 83 % 1016,1 hPa 0,0 l/m 0,0 km/h (0 Bft) S 173 5 min 0,000 mm 1,0 UV-I 104 W/m 8,8 C 11,6 C 0,0 km/h (0 Bft) 0,00 %
20.06.2015 06:20 11,7 C 83 % 1016,1 hPa 0,0 l/m 2,2 km/h (1 Bft) W-SW 253 5 min 0,000 mm 0,0 UV-I 119 W/m 8,9 C 11,7 C 4,0 km/h (1 Bft) 0,00 %
20.06.2015 06:25 11,7 C 83 % 1016,2 hPa 0,0 l/m 0,4 km/h (0 Bft) N-NW 337 5 min 0,000 mm 1,0 UV-I 190 W/m 8,9 C 11,7 C 4,0 km/h (1 Bft) 0,00 %
20.06.2015 06:30 11,6 C 83 % 1016,2 hPa 0,0 l/m 0,4 km/h (0 Bft) SW 230 5 min 0,000 mm 0,0 UV-I 217 W/m 8,8 C 11,6 C 4,0 km/h (1 Bft) 0,00 %
20.06.2015 06:35 11,7 C 83 % 1016,2 hPa 0,0 l/m 0,0 km/h (0 Bft) SO 134 0 min 0,000 mm 1,0 UV-I 111 W/m 8,9 C 11,7 C 0,0 km/h (0 Bft) 0,00 %
20.06.2015 06:40 11,7 C 83 % 1016,3 hPa 0,0 l/m 0,4 km/h (0 Bft) S-SO 159 0 min 0,000 mm 1,0 UV-I 84 W/m 8,9 C 11,7 C 4,0 km/h (1 Bft) 0,00 %
20.06.2015 06:45 11,8 C 82 % 1016,2 hPa 0,0 l/m 0,7 km/h (0 Bft) W-SW 250 0 min 0,000 mm 1,0 UV-I 69 W/m 8,8 C 11,8 C 4,0 km/h (1 Bft) 0,00 %
20.06.2015 06:50 11,9 C 83 % 1016,2 hPa 0,0 l/m 2,2 km/h (1 Bft) SW 233 0 min 0,000 mm 1,0 UV-I 69 W/m 9,1 C 11,9 C 4,0 km/h (1 Bft) 0,00 %
20.06.2015 06:55 12,2 C 82 % 1016,1 hPa 0,0 l/m 1,8 km/h (1 Bft) W-SW 256 0 min 0,000 mm 1,0 UV-I 84 W/m 9,2 C 12,2 C 4,0 km/h (1 Bft) 0,00 %
20.06.2015 07:00 13,0 C 78 % 1016,1 hPa 0,0 l/m 2,2 km/h (1 Bft) W-SW 254 0 min 0,000 mm 1,0 UV-I 99 W/m 9,3 C 13,0 C 4,0 km/h (1 Bft) 0,00 %
20.06.2015 07:05 13,8 C 75 % 1015,8 hPa 0,0 l/m 0,0 km/h (0 Bft) S 175 0 min 0,000 mm 1,0 UV-I 108 W/m 9,4 C 13,8 C 0,0 km/h (0 Bft) 0,00 %
20.06.2015 07:10 14,1 C 73 % 1015,5 hPa 0,0 l/m 0,4 km/h (0 Bft) S-SW 211 0 min 0,000 mm 2,0 UV-I 112 W/m 9,3 C 14,1 C 4,0 km/h (1 Bft) 0,00 %
20.06.2015 07:15 14,3 C 71 % 1015,7 hPa 0,0 l/m 0,0 km/h (0 Bft) S 180 0 min 0,000 mm 2,0 UV-I 94 W/m 9,1 C 14,3 C 0,0 km/h (0 Bft) 0,00 %
20.06.2015 07:20 14,6 C 71 % 1015,7 hPa 0,0 l/m 0,0 km/h (0 Bft) O-NO 68 0 min 0,000 mm 2,0 UV-I 82 W/m 9,4 C 14,6 C 0,0 km/h (0 Bft) 0,00 %
20.06.2015 07:25 14,7 C 67 % 1015,5 hPa 0,0 l/m 0,7 km/h (0 Bft) SW 235 0 min 0,000 mm 2,0 UV-I 62 W/m 8,6 C 14,7 C 4,0 km/h (1 Bft) 0,00 %
20.06.2015 07:30 14,6 C 67 % 1015,3 hPa 0,0 l/m 0,4 km/h (0 Bft) S-SW 209 0 min 0,000 mm 1,0 UV-I 71 W/m 8,5 C 14,6 C 4,0 km/h (1 Bft) 0,00 %
20.06.2015 07:35 14,3 C 69 % 1015,5 hPa 0,0 l/m 0,0 km/h (0 Bft) S-SW 200 0 min 0,000 mm 1,0 UV-I 79 W/m 8,7 C 14,3 C 0,0 km/h (0 Bft) 0,00 %
20.06.2015 07:40 14,1 C 70 % 1015,5 hPa 0,0 l/m 0,0 km/h (0 Bft) O-SO 103 0 min 0,000 mm 1,0 UV-I 108 W/m 8,7 C 14,1 C 0,0 km/h (0 Bft) 0,00 %
20.06.2015 07:45 14,1 C 67 % 1015,6 hPa 0,0 l/m 1,4 km/h (1 Bft) SW 226 0 min 0,000 mm 2,0 UV-I 105 W/m 8,1 C 14,1 C 4,0 km/h (1 Bft) 0,00 %
20.06.2015 07:50 14,4 C 66 % 1015,6 hPa 0,0 l/m 2,2 km/h (1 Bft) SW 222 0 min 0,000 mm 1,0 UV-I 179 W/m 8,1 C 14,4 C 4,0 km/h (1 Bft) 0,00 %
20.06.2015 07:55 14,6 C 66 % 1015,5 hPa 0,0 l/m 1,8 km/h (1 Bft) W-SW 256 0 min 0,000 mm 1,0 UV-I 206 W/m 8,3 C 14,6 C 4,0 km/h (1 Bft) 0,00 %
20.06.2015 08:00 14,6 C 66 % 1015,6 hPa 0,0 l/m 3,2 km/h (1 Bft) W-SW 256 5 min 0,000 mm 2,0 UV-I 482 W/m 8,3 C 14,6 C 4,0 km/h (1 Bft) 0,00 %
20.06.2015 08:05 14,4 C 66 % 1015,5 hPa 0,0 l/m 5,4 km/h (1 Bft) W-SW 256 5 min 0,000 mm 2,0 UV-I 255 W/m 8,1 C 14,4 C 7,9 km/h (2 Bft) 0,00 %
20.06.2015 08:10 14,3 C 66 % 1015,6 hPa 0,0 l/m 5,8 km/h (2 Bft) W-SW 253 5 min 0,000 mm 1,0 UV-I 468 W/m 8,0 C 14,3 C 7,9 km/h (2 Bft) 0,00 %
20.06.2015 08:15 14,1 C 68 % 1015,6 hPa 0,0 l/m 5,8 km/h (2 Bft) SW 234 5 min 0,000 mm 1,0 UV-I 430 W/m 8,3 C 14,1 C 7,9 km/h (2 Bft) 0,00 %
20.06.2015 08:20 13,8 C 68 % 1015,7 hPa 0,0 l/m 0,7 km/h (0 Bft) S 185 5 min 0,000 mm 1,0 UV-I 396 W/m 8,0 C 13,8 C 4,0 km/h (1 Bft) 0,00 %
20.06.2015 08:25 13,6 C 70 % 1015,9 hPa 0,0 l/m 7,2 km/h (2 Bft) W-NW 296 5 min 0,000 mm 1,0 UV-I 380 W/m 8,2 C 13,1 C 7,9 km/h (2 Bft) 0,00 %
20.06.2015 08:30 13,5 C 71 % 1015,8 hPa 0,0 l/m 0,0 km/h (0 Bft) SW 218 0 min 0,000 mm 1,0 UV-I 233 W/m 8,3 C 13,5 C 0,0 km/h (0 Bft) 0,00 %
20.06.2015 08:35 13,5 C 69 % 1015,8 hPa 0,0 l/m 0,4 km/h (0 Bft) SW 214 0 min 0,000 mm 2,0 UV-I 215 W/m 7,9 C 13,5 C 4,0 km/h (1 Bft) 0,00 %
20.06.2015 08:40 13,8 C 68 % 1015,6 hPa 0,0 l/m 1,4 km/h (1 Bft) W-SW 255 0 min 0,000 mm 2,0 UV-I 210 W/m 8,0 C 13,8 C 4,0 km/h (1 Bft) 0,00 %
20.06.2015 08:45 14,2 C 66 % 1015,3 hPa 0,0 l/m 4,0 km/h (1 Bft) S 181 0 min 0,000 mm 2,0 UV-I 268 W/m 7,9 C 14,2 C 7,9 km/h (2 Bft) 0,00 %
20.06.2015 08:50 14,6 C 63 % 1015,4 hPa 0,0 l/m 7,9 km/h (2 Bft) SW 231 5 min 0,000 mm 2,0 UV-I 359 W/m 7,6 C 13,7 C 11,9 km/h (2 Bft) 0,00 %
20.06.2015 08:55 15,1 C 62 % 1015,2 hPa 0,0 l/m 2,9 km/h (1 Bft) W-NW 286 0 min 0,000 mm 3,0 UV-I 312 W/m 7,9 C 15,1 C 4,0 km/h (1 Bft) 0,00 %
20.06.2015 09:00 15,5 C 59 % 1015,4 hPa 0,0 l/m 9,4 km/h (2 Bft) SW 225 0 min 0,000 mm 3,0 UV-I 253 W/m 7,5 C 13,9 C 15,8 km/h (3 Bft) 0,00 %
20.06.2015 09:05 15,8 C 60 % 1015,4 hPa 0,0 l/m 3,2 km/h (1 Bft) W-NW 289 5 min 0,000 mm 2,0 UV-I 327 W/m 8,1 C 15,8 C 7,9 km/h (2 Bft) 0,00 %
20.06.2015 09:10 16,0 C 58 % 1015,2 hPa 0,0 l/m 1,4 km/h (1 Bft) N 354 0 min 0,000 mm 3,0 UV-I 214 W/m 7,7 C 16,0 C 4,0 km/h (1 Bft) 0,00 %
20.06.2015 09:15 16,2 C 57 % 1015,1 hPa 0,0 l/m 0,0 km/h (0 Bft) NW 321 0 min 0,000 mm 3,0 UV-I 174 W/m 7,7 C 16,2 C 0,0 km/h (0 Bft) 0,00 %
20.06.2015 09:20 16,0 C 60 % 1015,2 hPa 0,0 l/m 0,0 km/h (0 Bft) S-SW 212 0 min 0,000 mm 2,0 UV-I 152 W/m 8,2 C 16,0 C 0,0 km/h (0 Bft) 0,00 %
20.06.2015 09:25 15,8 C 60 % 1015,3 hPa 0,0 l/m 0,0 km/h (0 Bft) SW 225 0 min 0,000 mm 3,0 UV-I 191 W/m 8,1 C 15,8 C 0,0 km/h (0 Bft) 0,00 %
20.06.2015 09:30 16,0 C 59 % 1015,3 hPa 0,0 l/m 0,0 km/h (0 Bft) S-SO 147 0 min 0,000 mm 2,0 UV-I 179 W/m 8,0 C 16,0 C 0,0 km/h (0 Bft) 0,00 %
20.06.2015 09:35 16,0 C 61 % 1015,4 hPa 0,0 l/m 2,2 km/h (1 Bft) W-SW 255 0 min 0,000 mm 2,0 UV-I 288 W/m 8,5 C 16,0 C 4,0 km/h (1 Bft) 0,00 %
20.06.2015 09:40 15,7 C 61 % 1015,4 hPa 0,0 l/m 11,5 km/h (2 Bft) W-SW 252 0 min 0,000 mm 3,0 UV-I 356 W/m 8,2 C 13,3 C 19,8 km/h (3 Bft) 0,00 %
20.06.2015 09:45 15,6 C 61 % 1015,5 hPa 0,0 l/m 6,8 km/h (2 Bft) W-SW 256 0 min 0,000 mm 3,0 UV-I 289 W/m 8,1 C 15,4 C 7,9 km/h (2 Bft) 0,00 %
20.06.2015 09:50 16,0 C 58 % 1015,5 hPa 0,0 l/m 0,0 km/h (0 Bft) S 181 5 min 0,000 mm 2,0 UV-I 520 W/m 7,7 C 16,0 C 0,0 km/h (0 Bft) 0,00 %
20.06.2015 09:55 16,2 C 59 % 1015,6 hPa 0,0 l/m 4,3 km/h (1 Bft) W-SW 256 5 min 0,000 mm 2,0 UV-I 460 W/m 8,2 C 16,2 C 7,9 km/h (2 Bft) 0,00 %
20.06.2015 10:00 15,7 C 61 % 1015,6 hPa 0,0 l/m 1,4 km/h (1 Bft) O 80 5 min 0,000 mm 3,0 UV-I 439 W/m 8,2 C 15,7 C 4,0 km/h (1 Bft) 0,00 %
20.06.2015 10:05 15,3 C 61 % 1015,7 hPa 0,0 l/m 8,3 km/h (2 Bft) W-SW 255 5 min 0,000 mm 2,0 UV-I 400 W/m 7,8 C 14,3 C 11,9 km/h (2 Bft) 0,00 %
20.06.2015 10:10 15,0 C 62 % 1015,9 hPa 0,0 l/m 0,7 km/h (0 Bft) W-SW 256 5 min 0,000 mm 2,0 UV-I 464 W/m 7,8 C 15,0 C 4,0 km/h (1 Bft) 0,00 %
20.06.2015 10:15 14,7 C 62 % 1015,9 hPa 0,0 l/m 1,8 km/h (1 Bft) SW 227 5 min 0,000 mm 2,0 UV-I 431 W/m 7,5 C 14,7 C 4,0 km/h (1 Bft) 0,00 %
20.06.2015 10:20 14,7 C 64 % 1016,0 hPa 0,0 l/m 0,0 km/h (0 Bft) S-SW 207 5 min 0,000 mm 2,0 UV-I 437 W/m 8,0 C 14,7 C 0,0 km/h (0 Bft) 0,00 %
20.06.2015 10:25 14,6 C 65 % 1016,0 hPa 0,0 l/m 13,0 km/h (3 Bft) SW 231 5 min 0,000 mm 2,0 UV-I 662 W/m 8,1 C 11,4 C 15,8 km/h (3 Bft) 0,00 %
20.06.2015 10:30 14,6 C 65 % 1016,0 hPa 0,0 l/m 4,0 km/h (1 Bft) W-SW 254 0 min 0,000 mm 2,0 UV-I 359 W/m 8,1 C 14,6 C 7,9 km/h (2 Bft) 0,00 %
20.06.2015 10:35 14,7 C 66 % 1016,0 hPa 0,0 l/m 8,3 km/h (2 Bft) S-SW 213 0 min 0,000 mm 3,0 UV-I 330 W/m 8,4 C 13,6 C 11,9 km/h (2 Bft) 0,00 %
20.06.2015 10:40 14,8 C 65 % 1015,9 hPa 0,0 l/m 5,8 km/h (2 Bft) N-NO 20 0 min 0,000 mm 3,0 UV-I 425 W/m 8,3 C 14,8 C 11,9 km/h (2 Bft) 0,00 %
20.06.2015 10:45 14,8 C 64 % 1015,9 hPa 0,0 l/m 3,2 km/h (1 Bft) S 178 5 min 0,000 mm 3,0 UV-I 533 W/m 8,1 C 14,8 C 7,9 km/h (2 Bft) 0,00 %
20.06.2015 10:50 14,9 C 62 % 1015,9 hPa 0,0 l/m 5,4 km/h (1 Bft) W-NW 285 0 min 0,000 mm 2,0 UV-I 331 W/m 7,7 C 14,9 C 7,9 km/h (2 Bft) 0,00 %
20.06.2015 10:55 14,8 C 64 % 1016,0 hPa 0,0 l/m 0,7 km/h (0 Bft) NO 35 0 min 0,000 mm 2,0 UV-I 287 W/m 8,1 C 14,8 C 4,0 km/h (1 Bft) 0,00 %
20.06.2015 11:00 14,7 C 65 % 1016,2 hPa 0,0 l/m 5,4 km/h (1 Bft) W-SW 254 0 min 0,000 mm 3,0 UV-I 408 W/m 8,2 C 14,7 C 11,9 km/h (2 Bft) 0,00 %
20.06.2015 11:05 14,7 C 64 % 1016,0 hPa 0,0 l/m 0,0 km/h (0 Bft) NO 39 0 min 0,000 mm 3,0 UV-I 327 W/m 8,0 C 14,7 C 0,0 km/h (0 Bft) 0,00 %
20.06.2015 11:10 14,9 C 65 % 1016,0 hPa 0,0 l/m 3,2 km/h (1 Bft) W-SW 239 0 min 0,000 mm 3,0 UV-I 329 W/m 8,4 C 14,9 C 7,9 km/h (2 Bft) 0,00 %
20.06.2015 11:15 15,1 C 67 % 1016,1 hPa 0,0 l/m 1,4 km/h (1 Bft) NO 35 0 min 0,000 mm 4,0 UV-I 299 W/m 9,0 C 15,1 C 4,0 km/h (1 Bft) 0,00 %
20.06.2015 11:20 15,1 C 65 % 1016,0 hPa 0,0 l/m 5,4 km/h (1 Bft) SW 220 0 min 0,000 mm 4,0 UV-I 324 W/m 8,6 C 15,1 C 7,9 km/h (2 Bft) 0,00 %
20.06.2015 11:25 15,2 C 63 % 1015,9 hPa 0,0 l/m 11,5 km/h (2 Bft) O 90 0 min 0,000 mm 5,0 UV-I 355 W/m 8,2 C 12,7 C 19,8 km/h (3 Bft) 0,00 %
20.06.2015 11:30 15,3 C 63 % 1015,9 hPa 0,0 l/m 5,4 km/h (1 Bft) SW 221 0 min 0,000 mm 3,0 UV-I 378 W/m 8,3 C 15,3 C 11,9 km/h (2 Bft) 0,00 %
20.06.2015 11:35 15,1 C 64 % 1016,1 hPa 0,0 l/m 3,2 km/h (1 Bft) NW 311 5 min 0,000 mm 2,0 UV-I 471 W/m 8,3 C 15,1 C 4,0 km/h (1 Bft) 0,00 %
20.06.2015 11:40 14,7 C 65 % 1016,2 hPa 0,0 l/m 5,4 km/h (1 Bft) S 174 0 min 0,000 mm 1,0 UV-I 468 W/m 8,2 C 14,7 C 7,9 km/h (2 Bft) 0,00 %
20.06.2015 11:45 14,3 C 67 % 1016,2 hPa 0,0 l/m 2,9 km/h (1 Bft) O-SO 102 5 min 0,000 mm 1,0 UV-I 475 W/m 8,3 C 14,3 C 4,0 km/h (1 Bft) 0,00 %
20.06.2015 11:50 14,0 C 68 % 1016,5 hPa 0,0 l/m 1,4 km/h (1 Bft) S 184 0 min 0,000 mm 2,0 UV-I 367 W/m 8,2 C 14,0 C 4,0 km/h (1 Bft) 0,00 %
20.06.2015 11:55 13,7 C 69 % 1016,6 hPa 0,0 l/m 1,4 km/h (1 Bft) N 355 0 min 0,000 mm 1,0 UV-I 300 W/m 8,1 C 13,7 C 4,0 km/h (1 Bft) 0,00 %
20.06.2015 12:00 13,3 C 71 % 1016,6 hPa 0,0 l/m 7,2 km/h (2 Bft) W 268 0 min 0,000 mm 1,0 UV-I 432 W/m 8,2 C 12,8 C 11,9 km/h (2 Bft) 0,00 %
20.06.2015 12:05 12,9 C 73 % 1016,7 hPa 0,0 l/m 12,2 km/h (2 Bft) W-SW 255 5 min 0,000 mm 1,0 UV-I 524 W/m 8,2 C 9,8 C 19,8 km/h (3 Bft) 0,00 %
20.06.2015 12:10 12,6 C 74 % 1017,1 hPa 0,0 l/m 1,4 km/h (1 Bft) W-SW 255 5 min 0,000 mm 1,0 UV-I 537 W/m 8,1 C 12,6 C 4,0 km/h (1 Bft) 0,00 %
20.06.2015 12:15 12,3 C 75 % 1017,1 hPa 0,0 l/m 8,3 km/h (2 Bft) W 271 5 min 0,000 mm 2,0 UV-I 545 W/m 8,0 C 11,1 C 11,9 km/h (2 Bft) 0,00 %
20.06.2015 12:20 12,3 C 75 % 1017,3 hPa 0,0 l/m 7,2 km/h (2 Bft) W-SW 256 5 min 0,000 mm 2,0 UV-I 680 W/m 8,0 C 11,8 C 11,9 km/h (2 Bft) 0,00 %
20.06.2015 12:25 12,3 C 76 % 1017,3 hPa 0,0 l/m 0,0 km/h (0 Bft) O 94 5 min 0,000 mm 2,0 UV-I 544 W/m 8,2 C 12,3 C 0,0 km/h (0 Bft) 0,00 %
20.06.2015 12:30 12,4 C 76 % 1017,3 hPa 0,0 l/m 6,8 km/h (2 Bft) W 259 5 min 0,000 mm 2,0 UV-I 621 W/m 8,3 C 12,1 C 11,9 km/h (2 Bft) 0,00 %
20.06.2015 12:35 12,5 C 75 % 1017,5 hPa 0,0 l/m 4,3 km/h (1 Bft) SW 227 0 min 0,000 mm 2,0 UV-I 242 W/m 8,2 C 12,5 C 7,9 km/h (2 Bft) 0,00 %
20.06.2015 12:40 12,4 C 78 % 1017,4 hPa 0,0 l/m 5,4 km/h (1 Bft) W-NW 295 0 min 0,000 mm 3,0 UV-I 201 W/m 8,7 C 12,4 C 7,9 km/h (2 Bft) 0,00 %
20.06.2015 12:45 12,3 C 79 % 1017,3 hPa 0,0 l/m 4,3 km/h (1 Bft) N 356 0 min 0,000 mm 3,0 UV-I 210 W/m 8,8 C 12,3 C 7,9 km/h (2 Bft) 0,00 %
20.06.2015 12:50 12,7 C 77 % 1017,5 hPa 0,0 l/m 2,2 km/h (1 Bft) S-SW 198 0 min 0,000 mm 3,0 UV-I 177 W/m 8,8 C 12,7 C 4,0 km/h (1 Bft) 0,00 %
20.06.2015 12:55 13,1 C 74 % 1017,4 hPa 0,0 l/m 1,4 km/h (1 Bft) SW 222 0 min 0,000 mm 4,0 UV-I 85 W/m 8,6 C 13,1 C 4,0 km/h (1 Bft) 0,00 %
20.06.2015 13:00 13,8 C 71 % 1017,0 hPa 0,0 l/m 1,8 km/h (1 Bft) S-SW 210 0 min 0,000 mm 3,0 UV-I 90 W/m 8,6 C 13,8 C 4,0 km/h (1 Bft) 0,00 %
20.06.2015 13:05 14,2 C 71 % 1016,9 hPa 0,0 l/m 1,8 km/h (1 Bft) W-SW 255 0 min 0,000 mm 2,0 UV-I 132 W/m 9,0 C 14,2 C 4,0 km/h (1 Bft) 0,00 %
20.06.2015 13:10 14,3 C 69 % 1016,9 hPa 0,0 l/m 0,0 km/h (0 Bft) O-SO 122 0 min 0,000 mm 5,0 UV-I 271 W/m 8,7 C 14,3 C 0,0 km/h (0 Bft) 0,00 %
20.06.2015 13:15 14,7 C 66 % 1016,9 hPa 0,0 l/m 7,2 km/h (2 Bft) O 82 0 min 0,000 mm 4,0 UV-I 241 W/m 8,4 C 14,2 C 11,9 km/h (2 Bft) 0,00 %
20.06.2015 13:20 14,7 C 64 % 1016,9 hPa 0,0 l/m 0,7 km/h (0 Bft) W-NW 299 0 min 0,000 mm 6,0 UV-I 279 W/m 8,0 C 14,7 C 4,0 km/h (1 Bft) 0,00 %
20.06.2015 13:25 14,8 C 62 % 1016,8 hPa 0,0 l/m 4,0 km/h (1 Bft) W 281 0 min 0,000 mm 4,0 UV-I 365 W/m 7,6 C 14,8 C 7,9 km/h (2 Bft) 0,00 %
20.06.2015 13:30 14,8 C 64 % 1016,8 hPa 0,0 l/m 4,0 km/h (1 Bft) W-SW 256 0 min 0,000 mm 6,0 UV-I 362 W/m 8,1 C 14,8 C 7,9 km/h (2 Bft) 0,00 %
20.06.2015 13:35 14,7 C 63 % 1017,0 hPa 0,0 l/m 3,2 km/h (1 Bft) W-NW 282 0 min 0,000 mm 3,0 UV-I 385 W/m 7,7 C 14,7 C 4,0 km/h (1 Bft) 0,00 %
20.06.2015 13:40 14,7 C 64 % 1017,0 hPa 0,0 l/m 5,8 km/h (2 Bft) N 353 0 min 0,000 mm 2,0 UV-I 391 W/m 8,0 C 14,7 C 11,9 km/h (2 Bft) 0,00 %
20.06.2015 13:45 14,3 C 65 % 1017,0 hPa 0,0 l/m 4,3 km/h (1 Bft) N 350 5 min 0,000 mm 2,0 UV-I 545 W/m 7,8 C 14,3 C 7,9 km/h (2 Bft) 0,00 %
20.06.2015 13:50 13,8 C 68 % 1017,2 hPa 0,0 l/m 3,2 km/h (1 Bft) W-SW 245 5 min 0,000 mm 2,0 UV-I 632 W/m 8,0 C 13,8 C 4,0 km/h (1 Bft) 0,00 %
20.06.2015 13:55 13,4 C 74 % 1017,2 hPa 0,0 l/m 7,9 km/h (2 Bft) N-NW 338 5 min 0,000 mm 1,0 UV-I 875 W/m 8,9 C 12,5 C 11,9 km/h (2 Bft) 0,00 %
20.06.2015 14:00 12,7 C 76 % 1017,7 hPa 0,0 l/m 0,7 km/h (0 Bft) NO 34 0 min 0,000 mm 1,0 UV-I 392 W/m 8,6 C 12,7 C 4,0 km/h (1 Bft) 0,00 %
20.06.2015 14:05 12,2 C 79 % 1017,6 hPa 0,0 l/m 4,3 km/h (1 Bft) W-SW 248 0 min 0,000 mm 1,0 UV-I 466 W/m 8,7 C 12,2 C 7,9 km/h (2 Bft) 0,00 %
20.06.2015 14:10 12,1 C 81 % 1017,5 hPa 0,3 l/m 0,4 km/h (0 Bft) O-SO 106 5 min 0,000 mm 2,0 UV-I 792 W/m 8,9 C 12,1 C 4,0 km/h (1 Bft) 0,00 %
20.06.2015 14:15 12,1 C 83 % 1017,3 hPa 0,0 l/m 1,4 km/h (1 Bft) W-SW 255 0 min 0,000 mm 2,0 UV-I 468 W/m 9,3 C 12,1 C 4,0 km/h (1 Bft) 0,00 %
20.06.2015 14:20 12,2 C 82 % 1017,2 hPa 0,0 l/m 0,0 km/h (0 Bft) S 182 5 min 0,000 mm 2,0 UV-I 841 W/m 9,2 C 12,2 C 0,0 km/h (0 Bft) 0,00 %
20.06.2015 14:25 12,1 C 81 % 1017,4 hPa 0,0 l/m 1,4 km/h (1 Bft) O 85 5 min 0,000 mm 1,0 UV-I 709 W/m 8,9 C 12,1 C 4,0 km/h (1 Bft) 0,00 %
20.06.2015 14:30 12,1 C 83 % 1017,4 hPa 0,0 l/m 1,4 km/h (1 Bft) W-SW 256 5 min 0,000 mm 2,0 UV-I 482 W/m 9,3 C 12,1 C 4,0 km/h (1 Bft) 0,00 %
20.06.2015 14:35 12,4 C 83 % 1017,3 hPa 0,0 l/m 0,0 km/h (0 Bft) O 91 0 min 0,000 mm 3,0 UV-I 304 W/m 9,6 C 12,4 C 0,0 km/h (0 Bft) 0,00 %
20.06.2015 14:40 13,0 C 78 % 1017,3 hPa 0,0 l/m 3,2 km/h (1 Bft) O 98 0 min 0,000 mm 4,0 UV-I 285 W/m 9,3 C 13,0 C 4,0 km/h (1 Bft) 0,00 %
20.06.2015 14:45 13,4 C 76 % 1017,4 hPa 0,0 l/m 9,4 km/h (2 Bft) SW 221 0 min 0,000 mm 2,0 UV-I 267 W/m 9,3 C 11,7 C 15,8 km/h (3 Bft) 0,00 %
20.06.2015 14:50 13,5 C 77 % 1017,5 hPa 0,0 l/m 0,0 km/h (0 Bft) N-NW 341 0 min 0,000 mm 3,0 UV-I 193 W/m 9,5 C 13,5 C 0,0 km/h (0 Bft) 0,00 %
20.06.2015 14:55 13,6 C 76 % 1017,3 hPa 0,0 l/m 8,3 km/h (2 Bft) SW 225 0 min 0,000 mm 2,0 UV-I 135 W/m 9,4 C 12,5 C 11,9 km/h (2 Bft) 0,00 %
20.06.2015 15:00 13,7 C 75 % 1017,3 hPa 0,0 l/m 1,8 km/h (1 Bft) S-SW 204 0 min 0,000 mm 4,0 UV-I 159 W/m 9,3 C 13,7 C 4,0 km/h (1 Bft) 0,00 %
20.06.2015 15:05 14,0 C 72 % 1017,2 hPa 0,0 l/m 4,7 km/h (1 Bft) W-SW 253 0 min 0,000 mm 2,0 UV-I 315 W/m 9,0 C 14,0 C 7,9 km/h (2 Bft) 0,00 %
20.06.2015 15:10 13,8 C 72 % 1017,4 hPa 0,0 l/m 6,5 km/h (2 Bft) NO 36 0 min 0,000 mm 1,0 UV-I 288 W/m 8,8 C 13,8 C 7,9 km/h (2 Bft) 0,00 %
20.06.2015 15:15 12,7 C 74 % 1017,6 hPa 0,0 l/m 4,0 km/h (1 Bft) W-SW 254 0 min 0,000 mm 1,0 UV-I 238 W/m 8,2 C 12,7 C 7,9 km/h (2 Bft) 0,00 %
20.06.2015 15:20 11,9 C 75 % 1017,7 hPa 0,0 l/m 7,2 km/h (2 Bft) SW 231 0 min 0,000 mm 1,0 UV-I 243 W/m 7,6 C 11,4 C 7,9 km/h (2 Bft) 0,00 %
20.06.2015 15:25 11,6 C 78 % 1017,8 hPa 0,0 l/m 9,0 km/h (2 Bft) W 271 0 min 0,000 mm 1,0 UV-I 357 W/m 7,9 C 9,9 C 11,9 km/h (2 Bft) 0,00 %
20.06.2015 15:30 11,3 C 79 % 1017,7 hPa 0,0 l/m 9,7 km/h (2 Bft) SW 225 5 min 0,000 mm 2,0 UV-I 539 W/m 7,8 C 9,2 C 11,9 km/h (2 Bft) 0,00 %
20.06.2015 15:35 11,4 C 79 % 1017,6 hPa 0,0 l/m 1,4 km/h (1 Bft) W 281 5 min 0,000 mm 2,0 UV-I 804 W/m 7,9 C 11,4 C 4,0 km/h (1 Bft) 0,00 %
20.06.2015 15:40 11,5 C 78 % 1017,8 hPa 0,0 l/m 0,0 km/h (0 Bft) O 98 0 min 0,000 mm 2,0 UV-I 398 W/m 7,8 C 11,5 C 0,0 km/h (0 Bft) 0,00 %
20.06.2015 15:45 11,7 C 78 % 1017,7 hPa 0,0 l/m 2,2 km/h (1 Bft) N-NW 327 5 min 0,000 mm 2,0 UV-I 513 W/m 8,0 C 11,7 C 4,0 km/h (1 Bft) 0,00 %
20.06.2015 15:50 11,9 C 78 % 1017,7 hPa 0,0 l/m 5,4 km/h (1 Bft) W-SW 255 5 min 0,000 mm 2,0 UV-I 451 W/m 8,2 C 11,9 C 11,9 km/h (2 Bft) 0,00 %
20.06.2015 15:55 12,0 C 79 % 1017,7 hPa 0,0 l/m 2,2 km/h (1 Bft) W-SW 255 5 min 0,000 mm 2,0 UV-I 717 W/m 8,5 C 12,0 C 4,0 km/h (1 Bft) 0,00 %
20.06.2015 16:00 12,2 C 77 % 1017,6 hPa 0,0 l/m 1,8 km/h (1 Bft) O 81 0 min 0,000 mm 2,0 UV-I 244 W/m 8,3 C 12,2 C 4,0 km/h (1 Bft) 0,00 %
20.06.2015 16:05 12,7 C 75 % 1017,5 hPa 0,0 l/m 0,4 km/h (0 Bft) O-SO 117 0 min 0,000 mm 2,0 UV-I 197 W/m 8,4 C 12,7 C 4,0 km/h (1 Bft) 0,00 %
20.06.2015 16:10 13,5 C 70 % 1017,4 hPa 0,0 l/m 1,8 km/h (1 Bft) S 175 0 min 0,000 mm 2,0 UV-I 210 W/m 8,1 C 13,5 C 4,0 km/h (1 Bft) 0,00 %
20.06.2015 16:15 14,3 C 67 % 1017,1 hPa 0,0 l/m 1,4 km/h (1 Bft) NW 311 0 min 0,000 mm 2,0 UV-I 203 W/m 8,3 C 14,3 C 4,0 km/h (1 Bft) 0,00 %
20.06.2015 16:20 14,1 C 68 % 1017,3 hPa 0,0 l/m 3,2 km/h (1 Bft) S-SW 201 0 min 0,000 mm 2,0 UV-I 250 W/m 8,3 C 14,1 C 4,0 km/h (1 Bft) 0,00 %
20.06.2015 16:25 13,3 C 71 % 1017,3 hPa 0,0 l/m 3,2 km/h (1 Bft) N-NW 336 0 min 0,000 mm 2,0 UV-I 289 W/m 8,2 C 13,3 C 4,0 km/h (1 Bft) 0,00 %
20.06.2015 16:30 12,8 C 73 % 1017,4 hPa 0,0 l/m 10,4 km/h (2 Bft) N-NW 333 0 min 0,000 mm 1,0 UV-I 237 W/m 8,1 C 10,5 C 19,8 km/h (3 Bft) 0,00 %
20.06.2015 16:35 12,3 C 74 % 1017,4 hPa 0,0 l/m 3,2 km/h (1 Bft) N 0 0 min 0,000 mm 1,0 UV-I 268 W/m 7,8 C 12,3 C 7,9 km/h (2 Bft) 0,00 %
20.06.2015 16:40 11,9 C 74 % 1017,7 hPa 0,0 l/m 4,3 km/h (1 Bft) N 8 0 min 0,000 mm 1,0 UV-I 297 W/m 7,4 C 11,9 C 7,9 km/h (2 Bft) 0,00 %
20.06.2015 16:45 11,8 C 75 % 1017,5 hPa 0,0 l/m 0,7 km/h (0 Bft) N-NO 23 0 min 0,000 mm 1,0 UV-I 332 W/m 7,5 C 11,8 C 4,0 km/h (1 Bft) 0,00 %
20.06.2015 16:50 12,1 C 73 % 1017,5 hPa 0,0 l/m 2,9 km/h (1 Bft) S 175 5 min 0,000 mm 2,0 UV-I 427 W/m 7,4 C 12,1 C 4,0 km/h (1 Bft) 0,00 %
20.06.2015 16:55 12,4 C 71 % 1017,5 hPa 0,0 l/m 0,0 km/h (0 Bft) S-SW 204 5 min 0,000 mm 1,0 UV-I 804 W/m 7,3 C 12,4 C 0,0 km/h (0 Bft) 0,00 %
20.06.2015 17:00 12,6 C 72 % 1017,5 hPa 0,0 l/m 3,2 km/h (1 Bft) O 101 5 min 0,000 mm 1,0 UV-I 1023 W/m 7,7 C 12,6 C 7,9 km/h (2 Bft) 0,00 %
20.06.2015 17:05 12,3 C 72 % 1017,6 hPa 0,0 l/m 3,2 km/h (1 Bft) SW 225 5 min 0,000 mm 1,0 UV-I 926 W/m 7,4 C 12,3 C 7,9 km/h (2 Bft) 0,00 %
20.06.2015 17:10 12,0 C 73 % 1017,6 hPa 0,0 l/m 0,4 km/h (0 Bft) SO 131 5 min 0,000 mm 1,0 UV-I 449 W/m 7,3 C 12,0 C 4,0 km/h (1 Bft) 0,00 %
20.06.2015 17:15 12,0 C 74 % 1017,8 hPa 0,0 l/m 0,4 km/h (0 Bft) S 174 0 min 0,000 mm 1,0 UV-I 289 W/m 7,5 C 12,0 C 4,0 km/h (1 Bft) 0,00 %
20.06.2015 17:20 12,0 C 74 % 1017,5 hPa 0,0 l/m 0,4 km/h (0 Bft) SO 130 5 min 0,000 mm 1,0 UV-I 325 W/m 7,5 C 12,0 C 4,0 km/h (1 Bft) 0,00 %
20.06.2015 17:25 12,3 C 70 % 1017,6 hPa 0,0 l/m 7,9 km/h (2 Bft) O-SO 116 0 min 0,000 mm 1,0 UV-I 202 W/m 7,0 C 11,3 C 15,8 km/h (3 Bft) 0,00 %
20.06.2015 17:30 12,6 C 68 % 1017,4 hPa 0,0 l/m 7,2 km/h (2 Bft) W-SW 256 0 min 0,000 mm 1,0 UV-I 160 W/m 6,9 C 12,1 C 11,9 km/h (2 Bft) 0,00 %
20.06.2015 17:35 12,4 C 71 % 1017,4 hPa 0,0 l/m 1,8 km/h (1 Bft) W-SW 256 0 min 0,000 mm 1,0 UV-I 224 W/m 7,3 C 12,4 C 4,0 km/h (1 Bft) 0,00 %
20.06.2015 17:40 12,2 C 72 % 1017,6 hPa 0,0 l/m 1,8 km/h (1 Bft) W-SW 249 5 min 0,000 mm 1,0 UV-I 363 W/m 7,3 C 12,2 C 4,0 km/h (1 Bft) 0,00 %
20.06.2015 17:45 12,0 C 73 % 1017,7 hPa 0,0 l/m 0,0 km/h (0 Bft) N-NW 344 5 min 0,000 mm 0,0 UV-I 378 W/m 7,3 C 12,0 C 0,0 km/h (0 Bft) 0,00 %
20.06.2015 17:50 11,8 C 75 % 1017,8 hPa 0,0 l/m 4,0 km/h (1 Bft) W-SW 258 5 min 0,000 mm 0,0 UV-I 300 W/m 7,5 C 11,8 C 7,9 km/h (2 Bft) 0,00 %
20.06.2015 17:55 11,6 C 76 % 1017,8 hPa 0,0 l/m 0,7 km/h (0 Bft) SO 129 0 min 0,000 mm 0,0 UV-I 182 W/m 7,5 C 11,6 C 4,0 km/h (1 Bft) 0,00 %
20.06.2015 18:00 11,5 C 77 % 1017,9 hPa 0,0 l/m 6,8 km/h (2 Bft) W-NW 301 0 min 0,000 mm 0,0 UV-I 177 W/m 7,6 C 11,2 C 11,9 km/h (2 Bft) 0,00 %
20.06.2015 18:05 11,4 C 77 % 1017,9 hPa 0,0 l/m 0,0 km/h (0 Bft) S 170 0 min 0,000 mm 0,0 UV-I 179 W/m 7,5 C 11,4 C 0,0 km/h (0 Bft) 0,00 %
20.06.2015 18:10 11,3 C 77 % 1018,1 hPa 0,0 l/m 0,4 km/h (0 Bft) S 184 0 min 0,000 mm 0,0 UV-I 220 W/m 7,4 C 11,3 C 4,0 km/h (1 Bft) 0,00 %
20.06.2015 18:15 11,2 C 77 % 1018,3 hPa 0,0 l/m 0,0 km/h (0 Bft) W-NW 282 5 min 0,000 mm 0,0 UV-I 241 W/m 7,3 C 11,2 C 0,0 km/h (0 Bft) 0,00 %
20.06.2015 18:20 11,2 C 79 % 1018,3 hPa 0,0 l/m 0,0 km/h (0 Bft) S 183 0 min 0,000 mm 0,0 UV-I 216 W/m 7,7 C 11,2 C 0,0 km/h (0 Bft) 0,00 %
20.06.2015 18:25 11,1 C 80 % 1018,3 hPa 0,0 l/m 4,3 km/h (1 Bft) S-SW 210 0 min 0,000 mm 0,0 UV-I 188 W/m 7,8 C 11,1 C 7,9 km/h (2 Bft) 0,00 %
20.06.2015 18:30 11,0 C 82 % 1018,5 hPa 0,3 l/m 1,4 km/h (1 Bft) S-SW 196 0 min 0,000 mm 0,0 UV-I 124 W/m 8,0 C 11,0 C 4,0 km/h (1 Bft) 0,00 %
20.06.2015 18:35 10,6 C 84 % 1018,8 hPa 0,0 l/m 0,0 km/h (0 Bft) W-SW 252 0 min 0,000 mm 0,0 UV-I 86 W/m 8,0 C 10,6 C 0,0 km/h (0 Bft) 0,00 %
20.06.2015 18:40 10,4 C 87 % 1018,7 hPa 0,0 l/m 0,7 km/h (0 Bft) SW 216 0 min 0,000 mm 0,0 UV-I 60 W/m 8,3 C 10,4 C 4,0 km/h (1 Bft) 0,00 %
20.06.2015 18:45 10,1 C 86 % 1018,7 hPa 0,0 l/m 0,0 km/h (0 Bft) S 184 0 min 0,000 mm 0,0 UV-I 42 W/m 7,9 C 10,1 C 0,0 km/h (0 Bft) 0,00 %
20.06.2015 18:50 9,8 C 87 % 1019,0 hPa 0,0 l/m 0,4 km/h (0 Bft) S 173 0 min 0,000 mm 0,0 UV-I 34 W/m 7,7 C 9,8 C 4,0 km/h (1 Bft) 0,00 %
20.06.2015 18:55 9,7 C 87 % 1018,8 hPa 0,0 l/m 1,4 km/h (1 Bft) W-SW 255 0 min 0,000 mm 0,0 UV-I 17 W/m 7,6 C 9,7 C 4,0 km/h (1 Bft) 0,00 %
20.06.2015 19:00 9,6 C 86 % 1019,0 hPa 0,0 l/m 0,0 km/h (0 Bft) W-SW 255 0 min 0,000 mm 0,0 UV-I 3 W/m 7,4 C 9,6 C 0,0 km/h (0 Bft) 0,00 %
20.06.2015 19:05 9,5 C 85 % 1018,9 hPa 0,0 l/m 0,0 km/h (0 Bft) SW 216 0 min 0,000 mm 0,0 UV-I 10 W/m 7,1 C 9,5 C 0,0 km/h (0 Bft) 0,00 %
20.06.2015 19:10 9,5 C 85 % 1019,0 hPa 0,0 l/m 0,0 km/h (0 Bft) S-SW 203 0 min 0,000 mm 0,0 UV-I 1 W/m 7,1 C 9,5 C 0,0 km/h (0 Bft) 0,00 %
20.06.2015 19:15 9,6 C 85 % 1018,8 hPa 0,0 l/m 0,0 km/h (0 Bft) S 174 0 min 0,000 mm 0,0 UV-I 5 W/m 7,2 C 9,6 C 0,0 km/h (0 Bft) 0,00 %
20.06.2015 19:20 9,6 C 86 % 1018,8 hPa 0,0 l/m 0,0 km/h (0 Bft) S-SW 207 0 min 0,000 mm 0,0 UV-I 23 W/m 7,4 C 9,6 C 0,0 km/h (0 Bft) 0,00 %
20.06.2015 19:25 9,8 C 87 % 1018,9 hPa 0,0 l/m 0,0 km/h (0 Bft) S 179 0 min 0,000 mm 0,0 UV-I 17 W/m 7,7 C 9,8 C 0,0 km/h (0 Bft) 0,00 %
20.06.2015 19:30 9,9 C 88 % 1019,0 hPa 0,0 l/m 0,0 km/h (0 Bft) S 176 0 min 0,000 mm 0,0 UV-I 12 W/m 8,0 C 9,9 C 0,0 km/h (0 Bft) 0,00 %
20.06.2015 19:35 10,0 C 88 % 1019,0 hPa 0,0 l/m 0,0 km/h (0 Bft) W-SW 255 0 min 0,000 mm 0,0 UV-I 16 W/m 8,1 C 10,0 C 0,0 km/h (0 Bft) 0,00 %
20.06.2015 19:40 10,0 C 89 % 1018,9 hPa 0,0 l/m 0,0 km/h (0 Bft) SW 214 0 min 0,000 mm 0,0 UV-I 22 W/m 8,3 C 10,0 C 0,0 km/h (0 Bft) 0,00 %
20.06.2015 19:45 10,1 C 89 % 1018,9 hPa 0,0 l/m 0,0 km/h (0 Bft) W-NW 295 0 min 0,000 mm 0,0 UV-I 18 W/m 8,4 C 10,1 C 0,0 km/h (0 Bft) 0,00 %
20.06.2015 19:50 10,1 C 90 % 1018,9 hPa 0,0 l/m 0,0 km/h (0 Bft) S 182 0 min 0,000 mm 0,0 UV-I 16 W/m 8,5 C 10,1 C 0,0 km/h (0 Bft) 0,00 %
20.06.2015 19:55 10,1 C 90 % 1018,8 hPa 0,0 l/m 0,4 km/h (0 Bft) SW 231 0 min 0,000 mm 0,0 UV-I 9 W/m 8,5 C 10,1 C 4,0 km/h (1 Bft) 0,00 %
20.06.2015 20:00 10,1 C 90 % 1018,8 hPa 0,0 l/m 0,0 km/h (0 Bft) S 183 0 min 0,000 mm 0,0 UV-I 9 W/m 8,5 C 10,1 C 0,0 km/h (0 Bft) 0,00 %
20.06.2015 20:05 10,1 C 90 % 1018,9 hPa 0,0 l/m 0,4 km/h (0 Bft) S-SW 201 0 min 0,000 mm 0,0 UV-I 12 W/m 8,5 C 10,1 C 4,0 km/h (1 Bft) 0,00 %
20.06.2015 20:10 10,1 C 90 % 1019,1 hPa 0,0 l/m 0,0 km/h (0 Bft) SO 124 0 min 0,000 mm 0,0 UV-I 29 W/m 8,5 C 10,1 C 0,0 km/h (0 Bft) 0,00 %
20.06.2015 20:15 10,1 C 90 % 1018,9 hPa 0,0 l/m 0,7 km/h (0 Bft) SW 233 0 min 0,000 mm 0,0 UV-I 32 W/m 8,5 C 10,1 C 4,0 km/h (1 Bft) 0,00 %
20.06.2015 20:20 10,2 C 90 % 1019,0 hPa 0,0 l/m 0,0 km/h (0 Bft) S 188 0 min 0,000 mm 0,0 UV-I 21 W/m 8,6 C 10,2 C 0,0 km/h (0 Bft) 0,00 %
20.06.2015 20:25 10,2 C 90 % 1019,1 hPa 0,0 l/m 1,4 km/h (1 Bft) O 93 0 min 0,000 mm 0,0 UV-I 3 W/m 8,6 C 10,2 C 4,0 km/h (1 Bft) 0,00 %
20.06.2015 20:30 10,2 C 90 % 1019,0 hPa 0,0 l/m 0,0 km/h (0 Bft) S-SW 194 0 min 0,000 mm 0,0 UV-I 1 W/m 8,6 C 10,2 C 0,0 km/h (0 Bft) 0,00 %
20.06.2015 20:35 10,2 C 89 % 1019,2 hPa 0,0 l/m 2,9 km/h (1 Bft) W-SW 256 0 min 0,000 mm 0,0 UV-I 0 W/m 8,5 C 10,2 C 4,0 km/h (1 Bft) 0,00 %
20.06.2015 20:40 10,2 C 89 % 1019,1 hPa 0,0 l/m 0,4 km/h (0 Bft) N-NW 348 0 min 0,000 mm 0,0 UV-I 0 W/m 8,5 C 10,2 C 4,0 km/h (1 Bft) 0,00 %
20.06.2015 20:45 10,3 C 88 % 1019,3 hPa 0,0 l/m 0,4 km/h (0 Bft) O 84 0 min 0,000 mm 0,0 UV-I 0 W/m 8,4 C 10,3 C 4,0 km/h (1 Bft) 0,00 %
20.06.2015 20:50 10,3 C 88 % 1019,2 hPa 0,0 l/m 2,2 km/h (1 Bft) O 79 0 min 0,000 mm 0,0 UV-I 0 W/m 8,4 C 10,3 C 4,0 km/h (1 Bft) 0,00 %
20.06.2015 20:55 10,3 C 87 % 1019,0 hPa 0,0 l/m 3,2 km/h (1 Bft) S-SW 193 0 min 0,000 mm 0,0 UV-I 0 W/m 8,2 C 10,3 C 7,9 km/h (2 Bft) 0,00 %
20.06.2015 21:00 10,4 C 86 % 1019,2 hPa 0,0 l/m 0,7 km/h (0 Bft) O-SO 109 0 min 0,000 mm 0,0 UV-I 0 W/m 8,2 C 10,4 C 4,0 km/h (1 Bft) 0,00 %
20.06.2015 21:05 10,4 C 85 % 1019,3 hPa 0,0 l/m 0,4 km/h (0 Bft) N 350 0 min 0,000 mm 0,0 UV-I 0 W/m 8,0 C 10,4 C 4,0 km/h (1 Bft) 0,00 %
20.06.2015 21:10 10,4 C 85 % 1019,5 hPa 0,0 l/m 5,4 km/h (1 Bft) SO 133 0 min 0,000 mm 0,0 UV-I 0 W/m 8,0 C 10,4 C 11,9 km/h (2 Bft) 0,00 %
20.06.2015 21:15 10,3 C 84 % 1019,4 hPa 0,0 l/m 5,4 km/h (1 Bft) W-SW 256 0 min 0,000 mm 0,0 UV-I 0 W/m 7,7 C 10,3 C 7,9 km/h (2 Bft) 0,00 %
20.06.2015 21:20 10,3 C 84 % 1019,4 hPa 0,0 l/m 5,4 km/h (1 Bft) W-SW 255 0 min 0,000 mm 0,0 UV-I 0 W/m 7,7 C 10,3 C 7,9 km/h (2 Bft) 0,00 %
20.06.2015 21:25 10,3 C 85 % 1019,3 hPa 0,0 l/m 0,0 km/h (0 Bft) O-NO 70 0 min 0,000 mm 0,0 UV-I 0 W/m 7,9 C 10,3 C 0,0 km/h (0 Bft) 0,00 %
20.06.2015 21:30 10,2 C 85 % 1019,1 hPa 0,0 l/m 2,2 km/h (1 Bft) N-NW 347 0 min 0,000 mm 0,0 UV-I 0 W/m 7,8 C 10,2 C 7,9 km/h (2 Bft) 0,00 %
20.06.2015 21:35 10,2 C 85 % 1019,3 hPa 0,0 l/m 11,5 km/h (2 Bft) W-SW 256 0 min 0,000 mm 0,0 UV-I 0 W/m 7,8 C 7,0 C 19,8 km/h (3 Bft) 0,00 %
20.06.2015 21:40 10,1 C 85 % 1019,7 hPa 0,0 l/m 2,2 km/h (1 Bft) SW 230 0 min 0,000 mm 0,0 UV-I 0 W/m 7,7 C 10,1 C 4,0 km/h (1 Bft) 0,00 %
20.06.2015 21:45 10,0 C 85 % 1019,6 hPa 0,0 l/m 0,4 km/h (0 Bft) SW 217 0 min 0,000 mm 0,0 UV-I 0 W/m 7,6 C 10,0 C 4,0 km/h (1 Bft) 0,00 %
20.06.2015 21:50 9,9 C 86 % 1019,6 hPa 0,0 l/m 5,4 km/h (1 Bft) O-SO 119 0 min 0,000 mm 0,0 UV-I 0 W/m 7,7 C 9,9 C 11,9 km/h (2 Bft) 0,00 %
20.06.2015 21:55 9,9 C 86 % 1019,6 hPa 0,0 l/m 1,4 km/h (1 Bft) NW 307 0 min 0,000 mm 0,0 UV-I 0 W/m 7,7 C 9,9 C 4,0 km/h (1 Bft) 0,00 %
20.06.2015 22:00 9,8 C 86 % 1019,6 hPa 0,0 l/m 2,2 km/h (1 Bft) W-SW 256 0 min 0,000 mm 0,0 UV-I 0 W/m 7,6 C 9,8 C 7,9 km/h (2 Bft) 0,00 %
20.06.2015 22:05 9,8 C 86 % 1019,4 hPa 0,0 l/m 0,0 km/h (0 Bft) N-NW 346 0 min 0,000 mm 0,0 UV-I 0 W/m 7,6 C 9,8 C 0,0 km/h (0 Bft) 0,00 %
20.06.2015 22:10 9,8 C 86 % 1019,8 hPa 0,0 l/m 0,4 km/h (0 Bft) NW 309 0 min 0,000 mm 0,0 UV-I 0 W/m 7,6 C 9,8 C 4,0 km/h (1 Bft) 0,00 %
20.06.2015 22:15 9,8 C 86 % 1019,7 hPa 0,0 l/m 0,4 km/h (0 Bft) N-NW 335 0 min 0,000 mm 0,0 UV-I 0 W/m 7,6 C 9,8 C 4,0 km/h (1 Bft) 0,00 %
20.06.2015 22:20 9,8 C 86 % 1019,7 hPa 0,0 l/m 4,0 km/h (1 Bft) NW 313 0 min 0,000 mm 0,0 UV-I 0 W/m 7,6 C 9,8 C 7,9 km/h (2 Bft) 0,00 %
20.06.2015 22:25 9,8 C 86 % 1019,9 hPa 0,0 l/m 10,4 km/h (2 Bft) W-SW 255 0 min 0,000 mm 0,0 UV-I 0 W/m 7,6 C 7,1 C 11,9 km/h (2 Bft) 0,00 %
20.06.2015 22:30 9,8 C 86 % 1019,9 hPa 0,0 l/m 0,0 km/h (0 Bft) S 180 0 min 0,000 mm 0,0 UV-I 0 W/m 7,6 C 9,8 C 0,0 km/h (0 Bft) 0,00 %
20.06.2015 22:35 9,8 C 87 % 1019,9 hPa 0,0 l/m 0,0 km/h (0 Bft) S-SW 212 0 min 0,000 mm 0,0 UV-I 0 W/m 7,7 C 9,8 C 0,0 km/h (0 Bft) 0,00 %
20.06.2015 22:40 9,7 C 87 % 1019,9 hPa 0,0 l/m 0,0 km/h (0 Bft) SO 133 0 min 0,000 mm 0,0 UV-I 0 W/m 7,6 C 9,7 C 0,0 km/h (0 Bft) 0,00 %
20.06.2015 22:45 9,7 C 87 % 1020,0 hPa 0,0 l/m 0,4 km/h (0 Bft) N-NO 32 0 min 0,000 mm 0,0 UV-I 0 W/m 7,6 C 9,7 C 4,0 km/h (1 Bft) 0,00 %
20.06.2015 23:00 9,7 C 88 % 1020,0 hPa 0,0 l/m 0,4 km/h (0 Bft) O 80 0 min 0,000 mm 0,0 UV-I 0 W/m 7,8 C 9,7 C 4,0 km/h (1 Bft) 0,00 %
20.06.2015 23:30 9,7 C 88 % 1019,9 hPa 0,0 l/m 0,0 km/h (0 Bft) O-NO 74 0 min 0,000 mm 0,0 UV-I 0 W/m 7,8 C 9,7 C 0,0 km/h (0 Bft) 0,00 %
_ Min-Zeit 19:05 09:15 09:15 - 00:00 - - - - - - 17:30 21:35 00:00 00:00
Minimum _ 9,5 C 57 % 1015,1 hPa - 0,0 km/h (0 Bft) - - - - - - 6,9 C 7,0 C 0,0 km/h (0 Bft) 0,00 %
_ Max-Zeit 09:15 04:15 22:45 14:10 10:25 - - 06:15 00:00 13:20 17:00 14:35 09:15 09:40 00:00
Maximum _ 16,2 C 90 % 1020,0 hPa 0,3 l/m 13,0 km/h
SW (3 Bft)
- - 5 min 0,000 mm 6,0 UV-I 1023 W/m 9,6 C 16,2 C 19,8 km/h
W-SW (3 Bft)
0,00 %
Durchschnitt _ 12,0 C 78 % 1017,3 hPa #0,6 l/m 2,1 km/h (1 Bft) W-SW - #4:15 h #0,000 mm 2,0 UV-I 275 W/m 8,2 C 11,9 C 4,3 km/h (1 Bft) 0,00 %